DW9106 Madrid ES current weather conditions

sailwx.info

Wind from 184

Air temperature 29.4° C
Dewpoint 11.9° C

Last reported at 2015-Aug-03 22:40 UTC.
Time now 2015-Aug-03 23:18 UTC

Location: N 40°23' W 003°38'.
View on Google Maps.

See reports from other nearby stations

  
Tides and Currents Weather Stations Pressure Air Temp Water Temp Dewpoint Dewpoint Depression Visibility Wind Speed Wind Dir Waves Ship Positions
date/time (UTC)wind fromknots sea level pressurealtimeterstation pressurevisibilityair tempwater tempwave heightnotes
2015-Aug-03 22:40 184 29.4
2015-Aug-03 22:25 245 29.4
2015-Aug-03 22:10 161 29.4
2015-Aug-03 21:55 252 30.0
2015-Aug-03 21:40 263 2 gusting 6 30.6
2015-Aug-03 21:25 250 1 gusting 5 30.6
2015-Aug-03 21:10 246 2 gusting 6 30.6
2015-Aug-03 20:55 198 1 gusting 6 31.1
2015-Aug-03 20:40 243 1 gusting 9 31.1
2015-Aug-03 20:25 268 3 gusting 12 31.1
2015-Aug-03 20:10 275 2 gusting 11 31.7
2015-Aug-03 19:55 270 5 gusting 9 31.7
2015-Aug-03 19:40 313 2 gusting 10 32.2
2015-Aug-03 19:25 275 5 gusting 13 32.2
2015-Aug-03 19:10 145 4 gusting 13 32.8
2015-Aug-03 18:55 232 4 gusting 15 33.3
2015-Aug-03 18:40 095 0 gusting 10 33.3
2015-Aug-03 18:25 080 3 gusting 15 33.3
2015-Aug-03 18:10 238 5 gusting 14 33.9
2015-Aug-03 17:55 257 5 gusting 9 34.4
2015-Aug-03 17:40 304 3 gusting 13 34.4
2015-Aug-03 17:25 009 2 gusting 8 35.6
2015-Aug-03 17:10 179 2 gusting 8 35.6
2015-Aug-03 16:55 226 1 gusting 13 35.6
2015-Aug-03 16:40 180 2 gusting 8 36.1
2015-Aug-03 16:25 291 5 gusting 12 36.1
2015-Aug-03 16:10 284 2 gusting 7 36.1
2015-Aug-03 15:55 281 1 gusting 9 36.1
2015-Aug-03 15:40 288 3 gusting 9 35.6
2015-Aug-03 15:25 275 3 gusting 9 35.6
2015-Aug-03 15:10 220 2 gusting 8 35.6
2015-Aug-03 14:55 125 0 gusting 9 35.6
2015-Aug-03 14:40 200 3 gusting 8 35.6
2015-Aug-03 14:25 291 0 gusting 6 35.6
2015-Aug-03 14:10 266 3 gusting 7 36.1
2015-Aug-03 13:55 140 36.1
2015-Aug-03 13:39 098 0 gusting 7 35.6
2015-Aug-03 13:24 245 3 gusting 9 35.6
2015-Aug-03 13:09 244 1 gusting 8 35.6
2015-Aug-03 12:54 309 4 gusting 7 35.6
2015-Aug-03 12:39 162 2 gusting 9 35.6
2015-Aug-03 12:24 117 1 gusting 7 34.4
2015-Aug-03 12:09 315 1 gusting 4 34.4
2015-Aug-03 11:54 159 1 gusting 7 33.3
2015-Aug-03 11:39 180 1 gusting 6 32.8
2015-Aug-03 11:24 139 0 gusting 5 32.8
2015-Aug-03 11:09 205 32.2
2015-Aug-03 10:54 075 0 gusting 2 31.7
2015-Aug-03 10:39 046 2 gusting 6 31.7
2015-Aug-03 10:24 167 0 gusting 4 31.1
2015-Aug-03 10:09 085 1 gusting 5 30.0
2015-Aug-03 09:54 076 1 gusting 5 28.9
2015-Aug-03 09:39 064 0 gusting 4 28.9
2015-Aug-03 09:24 053 1 gusting 5 28.3
2015-Aug-03 09:09 038 2 gusting 6 27.2
2015-Aug-03 08:54 076 2 gusting 5 26.7
2015-Aug-03 08:39 051 2 gusting 6 26.7
2015-Aug-03 08:23 107 1 gusting 6 26.1
2015-Aug-03 08:08 086 2 gusting 6 25.6
2015-Aug-03 07:53 071 3 gusting 6 25.6
2015-Aug-03 07:38 055 1 gusting 6 25.0
2015-Aug-03 07:23 034 3 gusting 6 24.4
2015-Aug-03 07:08 070 0 gusting 4 24.4
2015-Aug-03 06:53 068 4 gusting 7 23.9
2015-Aug-03 06:38 060 2 gusting 6 23.9
2015-Aug-03 06:23 074 1 gusting 6 23.9
2015-Aug-03 06:08 085 1 gusting 6 23.9
2015-Aug-03 05:53 048 0 gusting 4 23.3
2015-Aug-03 05:38 055 1 gusting 4 23.3
2015-Aug-03 05:23 048 1 gusting 4 23.3
2015-Aug-03 05:08 058 1 gusting 5 23.3
2015-Aug-03 04:53 050 1 gusting 3 23.3
2015-Aug-03 04:38 055 0 gusting 4 23.3
2015-Aug-03 04:23 065 0 gusting 3 23.9
2015-Aug-03 04:08 065 0 gusting 4 23.9
2015-Aug-03 03:52 067 0 gusting 3 23.9
2015-Aug-03 03:37 080 0 gusting 2 23.9
2015-Aug-03 03:22 082 23.9
2015-Aug-03 03:07 076 1 gusting 3 24.4
2015-Aug-03 02:52 078 1 gusting 2 24.4
2015-Aug-03 02:37 082 1 gusting 3 25.0
2015-Aug-03 02:22 092 0 gusting 4 25.0
2015-Aug-03 02:07 093 0 gusting 2 25.0
2015-Aug-03 01:52 095 0 gusting 2 25.6
2015-Aug-03 01:37 098 26.1
2015-Aug-03 01:22 123 1 gusting 4 26.1
2015-Aug-03 01:07 099 0 gusting 4 26.7
2015-Aug-03 00:52 130 26.7
2015-Aug-03 00:37 156 0 gusting 3 27.2
2015-Aug-03 00:22 169 27.2
2015-Aug-03 00:07 159 27.2
2015-Aug-02 23:52 162 27.8
2015-Aug-02 23:37 113 0 gusting 3 27.8
2015-Aug-02 23:22 134 27.8
2015-Aug-02 23:07 122 27.2
2015-Aug-02 22:52 117 27.2
2015-Aug-02 22:37 117 27.8
2015-Aug-02 22:22 117 27.8
2015-Aug-02 22:07 117 28.3
2015-Aug-02 21:52 117 28.3
2015-Aug-02 21:37 117 28.3
2015-Aug-02 21:22 117 28.9
2015-Aug-02 21:07 117 29.4
2015-Aug-02 20:52 117 30.0
2015-Aug-02 20:37 117 30.0
2015-Aug-02 20:22 117 30.6
2015-Aug-02 20:07 117 31.1
2015-Aug-02 19:52 117 31.7
2015-Aug-02 19:37 117 32.8
2015-Aug-02 19:22 117 33.3
2015-Aug-02 19:07 117 33.3
2015-Aug-02 18:52 178 0 gusting 3 33.9
2015-Aug-02 18:37 173 0 gusting 4 34.4
2015-Aug-02 18:22 242 0 gusting 3 35.0
2015-Aug-02 18:07 233 2 gusting 5 34.4
2015-Aug-02 17:52 270 2 gusting 8 34.4
2015-Aug-02 17:37 261 1 gusting 7 35.0
2015-Aug-02 17:22 186 3 gusting 7 35.6
2015-Aug-02 17:07 172 1 gusting 6 35.0
2015-Aug-02 16:52 192 3 gusting 8 35.6
2015-Aug-02 16:36 259 0 gusting 8 35.0
2015-Aug-02 16:21 267 2 gusting 6 35.0
2015-Aug-02 16:06 211 1 gusting 7 35.0
2015-Aug-02 15:51 232 3 gusting 11 34.4
2015-Aug-02 15:36 242 2 gusting 7 34.4
2015-Aug-02 15:21 150 3 gusting 8 34.4
2015-Aug-02 15:06 246 33.9
2015-Aug-02 14:51 249 5 gusting 9 34.4
2015-Aug-02 14:36 177 0 gusting 11 33.9
2015-Aug-02 14:21 170 4 gusting 9 32.8
2015-Aug-02 14:06 092 1 gusting 9 32.8
2015-Aug-02 13:51 254 2 gusting 7 33.3
2015-Aug-02 13:36 126 0 gusting 6 32.8
2015-Aug-02 13:21 311 3 gusting 7 32.8
2015-Aug-02 13:06 114 0 gusting 5 32.8
2015-Aug-02 12:51 267 1 gusting 6 32.2
2015-Aug-02 12:36 259 1 gusting 5 31.7
2015-Aug-02 12:21 174 1 gusting 4 31.1
2015-Aug-02 12:06 269 1 gusting 5 30.0
2015-Aug-02 11:51 083 0 gusting 5 29.4
2015-Aug-02 11:36 135 1 gusting 5 28.9
2015-Aug-02 11:21 101 1 gusting 4 28.9
2015-Aug-02 11:06 198 0 gusting 5 28.3
2015-Aug-02 10:51 102 0 gusting 6 28.3
2015-Aug-02 10:36 155 2 gusting 6 27.8
2015-Aug-02 10:21 111 26.7
2015-Aug-02 10:05 122 1 gusting 6 26.7
2015-Aug-02 09:50 149 1 gusting 6 26.1
2015-Aug-02 09:35 046 4 gusting 6 25.6
2015-Aug-02 09:20 068 4 gusting 7 24.4
2015-Aug-02 09:05 128 2 gusting 6 24.4
2015-Aug-02 08:50 093 2 gusting 8 23.9
2015-Aug-02 08:35 114 3 gusting 8 23.3
2015-Aug-02 08:20 059 3 gusting 6 23.3
2015-Aug-02 08:05 047 0 gusting 6 22.8
2015-Aug-02 07:50 082 3 gusting 9 22.8
2015-Aug-02 07:35 079 2 gusting 7 22.2
2015-Aug-02 07:20 062 1 gusting 6 22.2
2015-Aug-02 07:05 043 2 gusting 6 21.7
2015-Aug-02 06:50 044 2 gusting 6 21.7
2015-Aug-02 06:35 069 1 gusting 6 21.1
2015-Aug-02 06:20 070 0 gusting 4 20.6
2015-Aug-02 06:05 069 20.6
2015-Aug-02 05:50 080 0 gusting 5 20.6
2015-Aug-02 05:35 041 2 gusting 5 20.6
2015-Aug-02 05:20 063 1 gusting 3 20.6
2015-Aug-02 05:05 049 1 gusting 5 20.6
2015-Aug-02 04:50 068 0 gusting 3 20.6
2015-Aug-02 04:35 103 0 gusting 2 20.6
2015-Aug-02 04:20 109 0 gusting 6 21.1
2015-Aug-02 04:05 091 0 gusting 3 21.1
2015-Aug-02 03:50 071 1 gusting 6 20.6
2015-Aug-02 03:34 055 1 gusting 6 21.1
2015-Aug-02 03:19 082 1 gusting 5 21.1
2015-Aug-02 03:04 051 0 gusting 2 21.1
2015-Aug-02 02:49 066 0 gusting 3 21.1
2015-Aug-02 02:34 095 21.1
2015-Aug-02 02:19 082 2 gusting 6 21.1
2015-Aug-02 02:04 080 2 gusting 6 21.7
2015-Aug-02 01:49 049 5 gusting 9 21.7
2015-Aug-02 01:34 046 1 gusting 7 22.2
2015-Aug-02 01:19 112 3 gusting 7 22.8
2015-Aug-02 01:04 079 2 gusting 6 22.8
2015-Aug-02 00:49 055 2 gusting 6 22.8
2015-Aug-02 00:34 059 1 gusting 3 23.3
2015-Aug-02 00:19 074 23.3
2015-Aug-02 00:04 077 1 gusting 4 23.9
2015-Aug-01 23:49 056 2 gusting 6 23.9
2015-Aug-01 23:34 059 24.4
2015-Aug-01 23:19 087 0 gusting 4 24.4
2015-Aug-01 23:04 062 1 gusting 6 24.4